| time (UTC) | temp F | wind direction | speed MPH | gust MPH | rain 1hr in | rain 24hr in | rain mn in | humidity % | barometer mb |
| 20260901161401 | 58 | 29 | 0.0 | 0.0 | 0.00 | 0.00 | 0.00 | 65 | 1015.8 |
| 20260901160856 | 57 | 17 | 2.0 | 2.0 | 0.00 | 0.00 | 0.00 | 67 | 1015.8 |
| 20260901160353 | 58 | 359 | 2.0 | 2.0 | 0.00 | 0.00 | 0.00 | 66 | 1015.8 |
| 20260901155852 | 57 | 30 | 1.0 | 1.0 | 0.00 | 0.00 | 0.00 | 64 | 1015.9 |
| 20260901155347 | 58 | 24 | 2.0 | 2.0 | 0.00 | 0.00 | 0.00 | 64 | 1016.0 |
| 20260901154844 | 57 | 10 | 3.0 | 3.0 | 0.00 | 0.00 | 0.00 | 66 | 1015.7 |
| 20260901154342 | 57 | 7 | 3.0 | 3.0 | 0.00 | 0.00 | 0.00 | 65 | 1016.1 |
| 20260901153837 | 57 | 13 | 2.0 | 2.0 | 0.00 | 0.00 | 0.00 | 62 | 1015.9 |
| 20260901153332 | 57 | 324 | 3.0 | 3.0 | 0.00 | 0.00 | 0.00 | 63 | 1016.0 |
| 20260901152831 | 57 | 343 | 3.0 | 3.0 | 0.00 | 0.00 | 0.00 | 61 | 1016.0 |
| 20260901152330 | 57 | 5 | 2.0 | 2.0 | 0.00 | 0.00 | 0.00 | 61 | 1016.0 |
| 20260901151826 | 58 | 13 | 1.0 | 2.0 | 0.00 | 0.00 | 0.00 | 61 | 1016.0 |
| 20260901151326 | 58 | 36 | 0.0 | 0.0 | 0.00 | 0.00 | 0.00 | 62 | 1016.0 |
| 20260901150820 | 58 | 36 | 1.0 | 1.0 | 0.00 | 0.00 | 0.00 | 61 | 1015.8 |
| 20260901150318 | 57 | 36 | 0.0 | 0.0 | 0.00 | 0.00 | 0.00 | 63 | 1016.1 |
| 20260901145815 | 57 | 44 | 0.0 | 0.0 | 0.00 | 0.00 | 0.00 | 64 | 1016.1 |
| 20260901145310 | 56 | 49 | 0.0 | 0.0 | 0.00 | 0.00 | 0.00 | 66 | 1016.0 |
| 20260901144805 | 55 | 31 | 0.0 | 1.0 | 0.00 | 0.00 | 0.00 | 66 | 1016.0 |
| 20260901144301 | 55 | 47 | 2.0 | 2.0 | 0.00 | 0.00 | 0.00 | 66 | 1016.0 |
| 20260901143756 | 55 | 57 | 0.0 | 0.0 | 0.00 | 0.00 | 0.00 | 67 | 1015.9 |
| 20260901143252 | 55 | 64 | 0.0 | 0.0 | 0.00 | 0.00 | 0.00 | 67 | 1016.0 |
| 20260901142749 | 55 | 64 | 0.0 | 0.0 | 0.00 | 0.00 | 0.00 | 66 | 1015.8 |
| 20260901142247 | 55 | 73 | 0.0 | 0.0 | 0.00 | 0.00 | 0.00 | 67 | 1015.9 |
| 20260901141743 | 53 | 82 | 0.0 | 0.0 | 0.00 | 0.00 | 0.00 | 68 | 1016.0 |
| 20260901141242 | 52 | 81 | 2.0 | 2.0 | 0.00 | 0.00 | 0.00 | 70 | 1015.9 |
| 20260901140742 | 51 | 72 | 1.0 | 1.0 | 0.00 | 0.00 | 0.00 | 72 | 1015.9 |
| 20260901140240 | 50 | 67 | 0.0 | 0.0 | 0.00 | 0.00 | 0.00 | 76 | 1015.8 |
| 20260901135735 | 49 | 67 | 0.0 | 0.0 | 0.00 | 0.00 | 0.00 | 78 | 1015.9 |
| 20260901135230 | 49 | 58 | 1.0 | 2.0 | 0.00 | 0.00 | 0.00 | 80 | 1015.7 |
| 20260901134726 | 48 | 49 | 0.0 | 0.0 | 0.00 | 0.00 | 0.00 | 82 | 1015.7 |
| 20260901134226 | 48 | 49 | 0.0 | 0.0 | 0.00 | 0.00 | 0.00 | 82 | 1015.7 |
| 20260901133725 | 47 | 49 | 0.0 | 0.0 | 0.00 | 0.00 | 0.00 | 83 | 1015.7 |
| 20260901133224 | 46 | 49 | 0.0 | 0.0 | 0.00 | 0.00 | 0.00 | 85 | 1015.8 |
| 20260901132723 | 46 | 49 | 0.0 | 0.0 | 0.00 | 0.00 | 0.00 | 86 | 1015.6 |
| 20260901132218 | 45 | 49 | 0.0 | 0.0 | 0.00 | 0.00 | 0.00 | 87 | 1015.6 |
| 20260901131713 | 45 | 49 | 0.0 | 0.0 | 0.00 | 0.00 | 0.00 | 88 | 1015.6 |
| 20260901131212 | 45 | 49 | 0.0 | 0.0 | 0.00 | 0.00 | 0.00 | 89 | 1015.7 |
| 20260901130708 | 44 | 49 | 0.0 | 0.0 | 0.00 | 0.00 | 0.00 | 89 | 1015.7 |
| 20260901130207 | 44 | 49 | 0.0 | 0.0 | 0.00 | 0.00 | 0.00 | 89 | 1015.4 |
| 20260901125705 | 43 | 49 | 0.0 | 0.0 | 0.00 | 0.00 | 0.00 | 88 | 1015.4 |
| 20260901125200 | 44 | 48 | 0.0 | 1.0 | 0.00 | 0.00 | 0.00 | 87 | 1015.4 |
| 20260901124655 | 44 | 45 | 2.0 | 2.0 | 0.00 | 0.00 | 0.00 | 86 | 1015.5 |
| 20260901124155 | 45 | 34 | 0.0 | 1.0 | 0.00 | 0.00 | 0.00 | 82 | 1015.7 |
| 20260901123650 | 46 | 35 | 0.0 | 0.0 | 0.00 | 0.00 | 0.00 | 78 | 1015.5 |
| 20260901123149 | 46 | 114 | 0.0 | 0.0 | 0.00 | 0.00 | 0.00 | 77 | 1015.8 |
| 20260901122648 | 46 | 114 | 0.0 | 0.0 | 0.00 | 0.00 | 0.00 | 78 | 1015.5 |
| 20260901122143 | 46 | 114 | 1.0 | 1.0 | 0.00 | 0.00 | 0.00 | 79 | 1015.4 |
| 20260901121637 | 46 | 114 | 0.0 | 0.0 | 0.00 | 0.00 | 0.00 | 79 | 1015.4 |
| 20260901121132 | 47 | 101 | 0.0 | 0.0 | 0.00 | 0.00 | 0.00 | 79 | 1015.6 |
| 20260901120627 | 47 | 101 | 0.0 | 0.0 | 0.00 | 0.00 | 0.00 | 78 | 1015.3 |
| 20260901120122 | 47 | 102 | 2.0 | 2.0 | 0.00 | 0.00 | 0.00 | 78 | 1015.5 |
| 20260901115617 | 47 | 83 | 1.0 | 1.0 | 0.00 | 0.00 | 0.00 | 80 | 1015.3 |
| 20260901115114 | 47 | 76 | 1.0 | 2.0 | 0.00 | 0.00 | 0.00 | 78 | 1015.4 |
| 20260901114610 | 46 | 74 | 0.0 | 0.0 | 0.00 | 0.00 | 0.00 | 81 | 1015.3 |
| 20260901114109 | 47 | 88 | 0.0 | 0.0 | 0.00 | 0.00 | 0.00 | 80 | 1015.5 |
| 20260901113608 | 47 | 88 | 1.0 | 1.0 | 0.00 | 0.00 | 0.00 | 80 | 1015.4 |
| 20260901113103 | 47 | 88 | 1.0 | 2.0 | 0.00 | 0.00 | 0.00 | 80 | 1015.7 |
| 20260901112603 | 47 | 88 | 1.0 | 1.0 | 0.00 | 0.00 | 0.00 | 78 | 1015.5 |
| 20260901112058 | 47 | 101 | 1.0 | 2.0 | 0.00 | 0.00 | 0.00 | 79 | 1015.7 |
| 20260901111556 | 47 | 101 | 1.0 | 1.0 | 0.00 | 0.00 | 0.00 | 81 | 1015.6 |
| 20260901111055 | 47 | 101 | 1.0 | 1.0 | 0.00 | 0.00 | 0.00 | 82 | 1015.5 |
| 20260901110551 | 46 | 101 | 2.0 | 2.0 | 0.00 | 0.00 | 0.00 | 83 | 1015.6 |
| 20260901110046 | 46 | 71 | 0.0 | 1.0 | 0.00 | 0.00 | 0.00 | 84 | 1015.3 |
| 20260901105543 | 46 | 67 | 1.0 | 1.0 | 0.00 | 0.00 | 0.00 | 84 | 1015.4 |
| 20260901105042 | 46 | 75 | 2.0 | 2.0 | 0.00 | 0.00 | 0.00 | 84 | 1015.5 |
| 20260901104539 | 47 | 68 | 2.0 | 2.0 | 0.00 | 0.00 | 0.00 | 81 | 1015.5 |
| 20260901104034 | 47 | 77 | 1.0 | 1.0 | 0.00 | 0.00 | 0.00 | 80 | 1015.5 |
| 20260901103528 | 47 | 77 | 2.0 | 2.0 | 0.00 | 0.00 | 0.00 | 80 | 1015.6 |
| 20260901103024 | 48 | 48 | 0.0 | 0.0 | 0.00 | 0.00 | 0.00 | 78 | 1015.4 |
| 20260901102524 | 48 | 48 | 0.0 | 0.0 | 0.00 | 0.00 | 0.00 | 77 | 1015.4 |
| 20260901102018 | 48 | 48 | 0.0 | 0.0 | 0.00 | 0.00 | 0.00 | 79 | 1015.4 |
| 20260901101514 | 48 | 33 | 0.0 | 1.0 | 0.00 | 0.00 | 0.00 | 79 | 1015.3 |
| 20260901101008 | 48 | 33 | 0.0 | 0.0 | 0.00 | 0.00 | 0.00 | 78 | 1015.4 |
| 20260901100503 | 48 | 22 | 1.0 | 1.0 | 0.00 | 0.00 | 0.00 | 77 | 1015.5 |
| 20260901100001 | 48 | 25 | 2.0 | 2.0 | 0.00 | 0.00 | 0.00 | 80 | 1015.4 |
| 20260901095500 | 48 | 25 | 0.0 | 0.0 | 0.00 | 0.00 | 0.00 | 82 | 1015.3 |
| 20260901094958 | 48 | 24 | 0.0 | 0.0 | 0.00 | 0.00 | 0.00 | 81 | 1015.4 |
| 20260901094453 | 48 | 48 | 0.0 | 0.0 | 0.00 | 0.00 | 0.00 | 80 | 1015.5 |
| 20260901093952 | 48 | 93 | 0.0 | 0.0 | 0.00 | 0.00 | 0.00 | 79 | 1015.3 |
| 20260901093447 | 48 | 93 | 0.0 | 0.0 | 0.00 | 0.00 | 0.00 | 78 | 1015.4 |
| 20260901092947 | 48 | 93 | 1.0 | 1.0 | 0.00 | 0.00 | 0.00 | 80 | 1015.3 |
| 20260901092443 | 47 | 93 | 2.0 | 2.0 | 0.00 | 0.00 | 0.00 | 80 | 1015.1 |
| 20260901091939 | 48 | 93 | 1.0 | 1.0 | 0.00 | 0.00 | 0.00 | 78 | 1015.3 |
| 20260901091434 | 49 | 114 | 0.0 | 0.0 | 0.00 | 0.00 | 0.00 | 75 | 1015.5 |
| 20260901090929 | 49 | 114 | 0.0 | 0.0 | 0.00 | 0.00 | 0.00 | 76 | 1015.4 |
| 20260901090429 | 48 | 114 | 0.0 | 0.0 | 0.00 | 0.00 | 0.00 | 77 | 1015.5 |
| 20260901085924 | 48 | 114 | 0.0 | 0.0 | 0.00 | 0.00 | 0.00 | 75 | 1015.4 |
| 20260901085420 | 49 | 114 | 0.0 | 0.0 | 0.00 | 0.00 | 0.00 | 75 | 1015.3 |
| 20260901084916 | 50 | 114 | 1.0 | 1.0 | 0.00 | 0.00 | 0.00 | 74 | 1015.3 |
| 20260901084412 | 49 | 115 | 2.0 | 2.0 | 0.00 | 0.00 | 0.00 | 76 | 1015.6 |
| 20260901083908 | 49 | 114 | 1.0 | 1.0 | 0.00 | 0.00 | 0.00 | 77 | 1015.5 |
| 20260901083402 | 49 | 114 | 0.0 | 0.0 | 0.00 | 0.00 | 0.00 | 76 | 1015.6 |
| 20260901082900 | 48 | 114 | 0.0 | 0.0 | 0.00 | 0.00 | 0.00 | 78 | 1015.7 |
| 20260901082355 | 50 | 114 | 2.0 | 2.0 | 0.00 | 0.00 | 0.00 | 75 | 1015.5 |
| 20260901081850 | 50 | 114 | 0.0 | 0.0 | 0.00 | 0.00 | 0.00 | 72 | 1015.6 |
| 20260901081346 | 51 | 114 | 0.0 | 0.0 | 0.00 | 0.00 | 0.00 | 72 | 1015.7 |
| 20260901080845 | 51 | 114 | 0.0 | 0.0 | 0.00 | 0.00 | 0.00 | 67 | 1015.8 |
| 20260901080340 | 51 | 114 | 0.0 | 0.0 | 0.00 | 0.00 | 0.00 | 69 | 1015.8 |
| 20260901075834 | 51 | 114 | 0.0 | 0.0 | 0.00 | 0.00 | 0.00 | 69 | 1015.8 |
| 20260901075330 | 51 | 115 | 0.0 | 0.0 | 0.00 | 0.00 | 0.00 | 66 | 1016.0 |
| 20260901074824 | 51 | 114 | 0.0 | 0.0 | 0.00 | 0.00 | 0.00 | 70 | 1015.8 |
| 20260901074319 | 52 | 114 | 0.0 | 0.0 | 0.00 | 0.00 | 0.00 | 68 | 1015.7 |
| 20260901073815 | 52 | 114 | 0.0 | 0.0 | 0.00 | 0.00 | 0.00 | 64 | 1015.6 |
| 20260901073309 | 52 | 114 | 0.0 | 0.0 | 0.00 | 0.00 | 0.00 | 65 | 1015.8 |
| 20260901072800 | 53 | 114 | 0.0 | 0.0 | 0.00 | 0.00 | 0.00 | 65 | 1015.9 |
| 20260901072300 | 53 | 114 | 0.0 | 0.0 | 0.00 | 0.00 | 0.00 | 64 | 1015.7 |
| 20260901071755 | 53 | 114 | 0.0 | 0.0 | 0.00 | 0.00 | 0.00 | 66 | 1015.7 |
| 20260901071253 | 54 | 114 | 0.0 | 0.0 | 0.00 | 0.00 | 0.00 | 63 | 1015.6 |
| 20260901070752 | 53 | 114 | 0.0 | 0.0 | 0.00 | 0.00 | 0.00 | 63 | 1015.7 |
| 20260901070248 | 53 | 114 | 0.0 | 0.0 | 0.00 | 0.00 | 0.00 | 63 | 1015.7 |
| 20260901065748 | 53 | 117 | 1.0 | 1.0 | 0.00 | 0.00 | 0.00 | 64 | 1015.5 |
| 20260901065243 | 52 | 121 | 2.0 | 2.0 | 0.00 | 0.00 | 0.00 | 68 | 1015.6 |
| 20260901064739 | 51 | 95 | 2.0 | 2.0 | 0.00 | 0.00 | 0.00 | 72 | 1015.5 |
| 20260901064235 | 51 | 94 | 3.0 | 3.0 | 0.00 | 0.00 | 0.00 | 74 | 1015.7 |
| 20260901063732 | 51 | 93 | 0.0 | 0.0 | 0.00 | 0.00 | 0.00 | 73 | 1015.5 |
| 20260901063227 | 52 | 93 | 0.0 | 0.0 | 0.00 | 0.00 | 0.00 | 69 | 1015.4 |
| 20260901062724 | 53 | 105 | 0.0 | 0.0 | 0.00 | 0.00 | 0.00 | 67 | 1015.4 |
| 20260901062219 | 54 | 166 | 0.0 | 0.0 | 0.00 | 0.00 | 0.00 | 66 | 1015.3 |
| 20260901061715 | 54 | 166 | 1.0 | 1.0 | 0.00 | 0.00 | 0.00 | 64 | 1015.5 |
| 20260901061214 | 55 | 166 | 2.0 | 2.0 | 0.00 | 0.00 | 0.00 | 62 | 1015.4 |
| 20260901060710 | 55 | 166 | 3.0 | 3.0 | 0.00 | 0.00 | 0.00 | 62 | 1015.6 |
| 20260901060205 | 54 | 126 | 2.0 | 2.0 | 0.00 | 0.00 | 0.00 | 63 | 1015.6 |
| 20260901055700 | 54 | 114 | 2.0 | 2.0 | 0.00 | 0.00 | 0.00 | 65 | 1015.5 |
| 20260901055157 | 55 | 114 | 0.0 | 0.0 | 0.00 | 0.00 | 0.00 | 68 | 1015.6 |
| 20260901054654 | 55 | 114 | 1.0 | 1.0 | 0.00 | 0.00 | 0.00 | 65 | 1015.5 |
| 20260901054150 | 56 | 94 | 2.0 | 2.0 | 0.00 | 0.00 | 0.00 | 59 | 1015.6 |
| 20260901053645 | 55 | 92 | 0.0 | 0.0 | 0.00 | 0.00 | 0.00 | 64 | 1015.5 |
| 20260901053141 | 55 | 92 | 0.0 | 0.0 | 0.00 | 0.00 | 0.00 | 62 | 1015.6 |
| 20260901052636 | 55 | 92 | 0.0 | 0.0 | 0.00 | 0.00 | 0.00 | 62 | 1015.6 |
| 20260901052132 | 54 | 96 | 0.0 | 0.0 | 0.00 | 0.00 | 0.00 | 64 | 1015.7 |
| 20260901051631 | 54 | 96 | 0.0 | 0.0 | 0.00 | 0.00 | 0.00 | 65 | 1015.6 |
| 20260901051130 | 55 | 96 | 0.0 | 0.0 | 0.00 | 0.00 | 0.00 | 65 | 1015.8 |
| 20260901050626 | 55 | 96 | 1.0 | 1.0 | 0.00 | 0.00 | 0.00 | 64 | 1015.7 |
| 20260901050121 | 55 | 96 | 0.0 | 0.0 | 0.00 | 0.00 | 0.00 | 67 | 1015.5 |
| 20260901045615 | 56 | 96 | 0.0 | 0.0 | 0.00 | 0.00 | 0.00 | 66 | 1015.6 |
| 20260901045110 | 56 | 96 | 0.0 | 0.0 | 0.00 | 0.00 | 0.00 | 62 | 1015.7 |
| 20260901044606 | 58 | 96 | 0.0 | 0.0 | 0.00 | 0.00 | 0.00 | 59 | 1015.7 |
| 20260901044102 | 57 | 96 | 0.0 | 0.0 | 0.00 | 0.00 | 0.00 | 59 | 1015.7 |
| 20260901043557 | 57 | 96 | 0.0 | 0.0 | 0.00 | 0.00 | 0.00 | 62 | 1015.8 |
| 20260901043052 | 58 | 96 | 0.0 | 0.0 | 0.00 | 0.00 | 0.00 | 61 | 1015.6 |
| 20260901042552 | 58 | 111 | 0.0 | 0.0 | 0.00 | 0.00 | 0.00 | 57 | 1015.8 |
| 20260901042047 | 58 | 111 | 0.0 | 0.0 | 0.00 | 0.00 | 0.00 | 60 | 1015.9 |
| 20260901041542 | 58 | 100 | 2.0 | 2.0 | 0.00 | 0.00 | 0.00 | 58 | 1015.9 |
| 20260901041037 | 58 | 99 | 0.0 | 0.0 | 0.00 | 0.00 | 0.00 | 59 | 1015.9 |
| 20260901040536 | 58 | 99 | 0.0 | 0.0 | 0.00 | 0.00 | 0.00 | 61 | 1015.7 |
| 20260901040031 | 59 | 99 | 0.0 | 0.0 | 0.00 | 0.00 | 0.00 | 59 | 1015.9 |
| 20260901035529 | 59 | 98 | 0.0 | 0.0 | 0.00 | 0.00 | 0.00 | 61 | 1015.8 |
| 20260901035027 | 60 | 98 | 0.0 | 0.0 | 0.00 | 0.00 | 0.00 | 55 | 1015.7 |
| 20260901034522 | 59 | 123 | 1.0 | 1.0 | 0.00 | 0.00 | 0.00 | 55 | 1015.8 |
| 20260901034017 | 59 | 79 | 0.0 | 0.0 | 0.00 | 0.00 | 0.00 | 58 | 1015.8 |
| 20260901033516 | 60 | 80 | 2.0 | 2.0 | 0.00 | 0.00 | 0.00 | 54 | 1015.5 |
| 20260901033016 | 61 | 76 | 1.0 | 1.0 | 0.00 | 0.00 | 0.00 | 56 | 1015.6 |
| 20260901032510 | 62 | 74 | 0.0 | 1.0 | 0.00 | 0.00 | 0.00 | 52 | 1015.4 |
| 20260901032010 | 63 | 90 | 0.0 | 0.0 | 0.00 | 0.00 | 0.00 | 50 | 1015.5 |
| 20260901031505 | 64 | 98 | 0.0 | 0.0 | 0.00 | 0.00 | 0.00 | 49 | 1015.6 |
| 20260901031001 | 64 | 95 | 2.0 | 2.0 | 0.00 | 0.00 | 0.00 | 49 | 1015.4 |
| 20260901030455 | 64 | 31 | 0.0 | 0.0 | 0.00 | 0.00 | 0.00 | 48 | 1015.3 |
| 20260901025954 | 64 | 32 | 0.0 | 1.0 | 0.00 | 0.00 | 0.00 | 46 | 1015.4 |
| 20260901025449 | 65 | 18 | 0.0 | 0.0 | 0.00 | 0.00 | 0.00 | 46 | 1015.1 |
| 20260901024949 | 65 | 20 | 0.0 | 0.0 | 0.00 | 0.00 | 0.00 | 46 | 1015.1 |
| 20260901024444 | 65 | 20 | 0.0 | 0.0 | 0.00 | 0.00 | 0.00 | 45 | 1014.9 |
| 20260901023942 | 65 | 21 | 0.0 | 0.0 | 0.00 | 0.00 | 0.00 | 46 | 1015.0 |
| 20260901023437 | 68 | 20 | 0.0 | 0.0 | 0.00 | 0.00 | 0.00 | 43 | 1015.0 |
| 20260901022932 | 69 | 115 | 0.0 | 0.0 | 0.00 | 0.00 | 0.00 | 38 | 1014.9 |
| 20260901022428 | 69 | 116 | 2.0 | 2.0 | 0.00 | 0.00 | 0.00 | 37 | 1014.7 |
| 20260901021922 | 70 | 115 | 2.0 | 2.0 | 0.00 | 0.00 | 0.00 | 38 | 1014.7 |
| 20260901021418 | 70 | 115 | 2.0 | 2.0 | 0.00 | 0.00 | 0.00 | 37 | 1014.6 |
| 20260901020913 | 71 | 102 | 2.0 | 2.0 | 0.00 | 0.00 | 0.00 | 36 | 1014.6 |
| 20260901020409 | 71 | 109 | 4.0 | 5.0 | 0.00 | 0.00 | 0.00 | 34 | 1014.6 |
| 20260901015907 | 70 | 95 | 3.0 | 3.0 | 0.00 | 0.00 | 0.00 | 37 | 1014.6 |
| 20260901015404 | 69 | 94 | 4.0 | 5.0 | 0.00 | 0.00 | 0.00 | 40 | 1014.4 |
| 20260901014903 | 71 | 81 | 3.0 | 3.0 | 0.00 | 0.00 | 0.00 | 40 | 1014.5 |
| 20260901014400 | 72 | 71 | 0.0 | 1.0 | 0.00 | 0.00 | 0.00 | 37 | 1014.6 |
| 20260901013855 | 72 | 90 | 3.0 | 3.0 | 0.00 | 0.00 | 0.00 | 37 | 1014.5 |
| 20260901013350 | 72 | 92 | 4.0 | 6.0 | 0.00 | 0.00 | 0.00 | 36 | 1014.7 |
| 20260901012846 | 73 | 71 | 4.0 | 5.0 | 0.00 | 0.00 | 0.00 | 37 | 1014.6 |
| 20260901012341 | 73 | 89 | 3.0 | 5.0 | 0.00 | 0.00 | 0.00 | 36 | 1014.8 |
| 20260901011837 | 74 | 97 | 5.0 | 6.0 | 0.00 | 0.00 | 0.00 | 34 | 1014.8 |
| 20260901011332 | 74 | 91 | 5.0 | 6.0 | 0.00 | 0.00 | 0.00 | 35 | 1014.8 |
| 20260901010825 | 75 | 78 | 6.0 | 7.0 | 0.00 | 0.00 | 0.00 | 34 | 1014.9 |
| 20260901010320 | 75 | 75 | 4.0 | 5.0 | 0.00 | 0.00 | 0.00 | 33 | 1014.9 |
| 20260901005819 | 75 | 99 | 7.0 | 7.0 | 0.00 | 0.00 | 0.00 | 32 | 1014.8 |
| 20260901005314 | 76 | 48 | 6.0 | 7.0 | 0.00 | 0.00 | 0.00 | 32 | 1014.9 |
| 20260901004814 | 76 | 82 | 7.0 | 9.0 | 0.00 | 0.00 | 0.00 | 32 | 1015.0 |
| 20260901004309 | 76 | 90 | 7.0 | 8.0 | 0.00 | 0.00 | 0.00 | 31 | 1014.9 |
| 20260901003808 | 77 | 59 | 5.0 | 7.0 | 0.00 | 0.00 | 0.00 | 32 | 1014.8 |
| 20260901003258 | 77 | 62 | 5.0 | 6.0 | 0.00 | 0.00 | 0.00 | 31 | 1015.1 |
| 20260901002756 | 77 | 90 | 5.0 | 6.0 | 0.00 | 0.00 | 0.00 | 30 | 1014.9 |
| 20260901002252 | 77 | 90 | 5.0 | 7.0 | 0.00 | 0.00 | 0.00 | 31 | 1015.3 |
| 20260901001747 | 77 | 88 | 7.0 | 8.0 | 0.00 | 0.00 | 0.00 | 30 | 1015.3 |
| 20260901001242 | 77 | 103 | 5.0 | 6.0 | 0.00 | 0.00 | 0.00 | 31 | 1015.1 |
| 20260901000737 | 77 | 86 | 5.0 | 7.0 | 0.00 | 0.00 | 0.00 | 32 | 1015.3 |
| 20260901000233 | 78 | 101 | 7.0 | 8.0 | 0.00 | 0.00 | 0.00 | 30 | 1015.5 |
| 20260831235726 | 78 | 87 | 7.0 | 9.0 | 0.00 | 0.00 | 0.00 | 28 | 1015.3 |
| 20260831235222 | 78 | 114 | 9.0 | 10.0 | 0.00 | 0.00 | 0.00 | 26 | 1015.5 |
| 20260831234721 | 78 | 109 | 9.0 | 10.0 | 0.00 | 0.00 | 0.00 | 26 | 1015.5 |
| 20260831234216 | 79 | 129 | 9.0 | 10.0 | 0.00 | 0.00 | 0.00 | 28 | 1015.5 |
| 20260831233711 | 78 | 91 | 9.0 | 10.0 | 0.00 | 0.00 | 0.00 | 28 | 1015.6 |
| 20260831233207 | 78 | 109 | 9.0 | 10.0 | 0.00 | 0.00 | 0.00 | 27 | 1015.6 |
| 20260831232706 | 77 | 100 | 7.0 | 9.0 | 0.00 | 0.00 | 0.00 | 31 | 1015.7 |
| 20260831232203 | 77 | 84 | 9.0 | 11.0 | 0.00 | 0.00 | 0.00 | 29 | 1015.6 |
| 20260831231659 | 77 | 71 | 6.0 | 8.0 | 0.00 | 0.00 | 0.00 | 31 | 1015.7 |
| 20260831231154 | 77 | 112 | 9.0 | 11.0 | 0.00 | 0.00 | 0.00 | 29 | 1015.9 |
| 20260831230649 | 77 | 94 | 10.0 | 10.0 | 0.00 | 0.00 | 0.00 | 29 | 1016.0 |
| 20260831230144 | 77 | 99 | 9.0 | 10.0 | 0.00 | 0.00 | 0.00 | 30 | 1015.8 |
| 20260831225644 | 77 | 92 | 8.0 | 9.0 | 0.00 | 0.00 | 0.00 | 31 | 1015.8 |
| 20260831225139 | 77 | 94 | 8.0 | 13.0 | 0.00 | 0.00 | 0.00 | 31 | 1016.0 |
| 20260831224634 | 77 | 72 | 10.0 | 11.0 | 0.00 | 0.00 | 0.00 | 32 | 1015.9 |
| 20260831224129 | 77 | 80 | 9.0 | 10.0 | 0.00 | 0.00 | 0.00 | 30 | 1016.1 |
| 20260831223625 | 77 | 88 | 8.0 | 10.0 | 0.00 | 0.00 | 0.00 | 32 | 1016.0 |
| 20260831223121 | 77 | 46 | 10.0 | 11.0 | 0.00 | 0.00 | 0.00 | 32 | 1016.1 |
| 20260831222616 | 76 | 87 | 8.0 | 10.0 | 0.00 | 0.00 | 0.00 | 33 | 1016.3 |
| 20260831222112 | 76 | 81 | 9.0 | 10.0 | 0.00 | 0.00 | 0.00 | 33 | 1016.3 |
| 20260831221607 | 76 | 97 | 10.0 | 13.0 | 0.00 | 0.00 | 0.00 | 30 | 1016.4 |
| 20260831221102 | 76 | 118 | 7.0 | 8.0 | 0.00 | 0.00 | 0.00 | 32 | 1016.4 |
| 20260831220601 | 76 | 93 | 10.0 | 11.0 | 0.00 | 0.00 | 0.00 | 30 | 1016.3 |
| 20260831220058 | 76 | 98 | 10.0 | 11.0 | 0.00 | 0.00 | 0.00 | 32 | 1016.5 |
| 20260831215548 | 76 | 83 | 9.0 | 11.0 | 0.00 | 0.00 | 0.00 | 32 | 1016.6 |
| 20260831215043 | 76 | 100 | 10.0 | 10.0 | 0.00 | 0.00 | 0.00 | 31 | 1016.8 |
| 20260831214541 | 75 | 76 | 9.0 | 10.0 | 0.00 | 0.00 | 0.00 | 33 | 1016.8 |
| 20260831214036 | 76 | 95 | 12.0 | 15.0 | 0.00 | 0.00 | 0.00 | 31 | 1016.7 |
| 20260831213533 | 75 | 95 | 12.0 | 14.0 | 0.00 | 0.00 | 0.00 | 33 | 1017.0 |
| 20260831213028 | 75 | 110 | 11.0 | 13.0 | 0.00 | 0.00 | 0.00 | 31 | 1016.9 |
| 20260831212524 | 75 | 110 | 10.0 | 13.0 | 0.00 | 0.00 | 0.00 | 31 | 1017.2 |
| 20260831212019 | 75 | 78 | 10.0 | 11.0 | 0.00 | 0.00 | 0.00 | 32 | 1017.2 |
| 20260831211514 | 75 | 91 | 7.0 | 8.0 | 0.00 | 0.00 | 0.00 | 30 | 1017.3 |
| 20260831211013 | 75 | 67 | 8.0 | 11.0 | 0.00 | 0.00 | 0.00 | 31 | 1017.3 |
| 20260831210508 | 76 | 90 | 9.0 | 10.0 | 0.00 | 0.00 | 0.00 | 28 | 1017.3 |
| 20260831210005 | 74 | 97 | 8.0 | 8.0 | 0.00 | 0.00 | 0.00 | 31 | 1017.4 |
| 20260831205459 | 74 | 79 | 8.0 | 9.0 | 0.00 | 0.00 | 0.00 | 30 | 1017.5 |
| 20260831204955 | 74 | 90 | 4.0 | 6.0 | 0.00 | 0.00 | 0.00 | 30 | 1017.6 |
| 20260831204454 | 74 | 77 | 7.0 | 9.0 | 0.00 | 0.00 | 0.00 | 31 | 1017.9 |
| 20260831203953 | 74 | 97 | 7.0 | 8.0 | 0.00 | 0.00 | 0.00 | 32 | 1017.5 |
| 20260831203448 | 73 | 100 | 8.0 | 9.0 | 0.00 | 0.00 | 0.00 | 29 | 1017.8 |
| 20260831202946 | 73 | 113 | 9.0 | 10.0 | 0.00 | 0.00 | 0.00 | 28 | 1017.7 |
| 20260831202442 | 73 | 87 | 8.0 | 9.0 | 0.00 | 0.00 | 0.00 | 31 | 1017.6 |
| 20260831201940 | 73 | 64 | 6.0 | 7.0 | 0.00 | 0.00 | 0.00 | 29 | 1017.8 |
| 20260831201439 | 73 | 105 | 8.0 | 9.0 | 0.00 | 0.00 | 0.00 | 29 | 1017.9 |
| 20260831200935 | 72 | 100 | 8.0 | 9.0 | 0.00 | 0.00 | 0.00 | 29 | 1018.0 |
| 20260831200430 | 72 | 92 | 8.0 | 10.0 | 0.00 | 0.00 | 0.00 | 28 | 1018.0 |
| 20260831195930 | 72 | 92 | 10.0 | 11.0 | 0.00 | 0.00 | 0.00 | 29 | 1018.2 |
| 20260831195426 | 72 | 71 | 9.0 | 13.0 | 0.00 | 0.00 | 0.00 | 31 | 1018.2 |
| 20260831194921 | 71 | 104 | 7.0 | 8.0 | 0.00 | 0.00 | 0.00 | 28 | 1018.4 |
| 20260831194416 | 72 | 103 | 7.0 | 8.0 | 0.00 | 0.00 | 0.00 | 30 | 1018.4 |
| 20260831193915 | 71 | 108 | 7.0 | 8.0 | 0.00 | 0.00 | 0.00 | 30 | 1018.5 |
| 20260831193411 | 71 | 96 | 6.0 | 8.0 | 0.00 | 0.00 | 0.00 | 33 | 1018.5 |
| 20260831192906 | 71 | 114 | 8.0 | 8.0 | 0.00 | 0.00 | 0.00 | 30 | 1018.6 |
| 20260831192401 | 71 | 92 | 7.0 | 9.0 | 0.00 | 0.00 | 0.00 | 33 | 1018.7 |
| 20260831191856 | 70 | 61 | 7.0 | 8.0 | 0.00 | 0.00 | 0.00 | 32 | 1018.7 |
| 20260831191352 | 70 | 106 | 7.0 | 8.0 | 0.00 | 0.00 | 0.00 | 30 | 1018.7 |
| 20260831190848 | 71 | 67 | 5.0 | 9.0 | 0.00 | 0.00 | 0.00 | 32 | 1018.7 |
| 20260831190348 | 70 | 98 | 5.0 | 7.0 | 0.00 | 0.00 | 0.00 | 34 | 1018.8 |
| 20260831185847 | 69 | 112 | 8.0 | 9.0 | 0.00 | 0.00 | 0.00 | 34 | 1018.9 |
| 20260831185343 | 69 | 83 | 6.0 | 9.0 | 0.00 | 0.00 | 0.00 | 37 | 1019.1 |
| 20260831184842 | 69 | 88 | 9.0 | 10.0 | 0.00 | 0.00 | 0.00 | 36 | 1019.3 |
| 20260831184338 | 69 | 67 | 6.0 | 8.0 | 0.00 | 0.00 | 0.00 | 36 | 1019.3 |
| 20260831183833 | 69 | 94 | 7.0 | 8.0 | 0.00 | 0.00 | 0.00 | 34 | 1019.4 |
| 20260831183332 | 69 | 78 | 7.0 | 7.0 | 0.00 | 0.00 | 0.00 | 35 | 1019.2 |
| 20260831182832 | 69 | 93 | 9.0 | 10.0 | 0.00 | 0.00 | 0.00 | 35 | 1019.5 |
| 20260831182327 | 69 | 105 | 11.0 | 11.0 | 0.00 | 0.00 | 0.00 | 36 | 1019.4 |
| 20260831181822 | 68 | 101 | 8.0 | 9.0 | 0.00 | 0.00 | 0.00 | 36 | 1019.5 |
| 20260831181317 | 68 | 77 | 8.0 | 9.0 | 0.00 | 0.00 | 0.00 | 36 | 1019.7 |
| 20260831180812 | 68 | 57 | 7.0 | 8.0 | 0.00 | 0.00 | 0.00 | 37 | 1019.8 |
| 20260831180307 | 67 | 90 | 6.0 | 8.0 | 0.00 | 0.00 | 0.00 | 38 | 1020.1 |
| 20260831175806 | 68 | 111 | 6.0 | 8.0 | 0.00 | 0.00 | 0.00 | 39 | 1019.8 |
| 20260831175306 | 68 | 55 | 5.0 | 8.0 | 0.00 | 0.00 | 0.00 | 37 | 1020.1 |
| 20260831174758 | 67 | 50 | 7.0 | 8.0 | 0.00 | 0.00 | 0.00 | 39 | 1019.9 |
| 20260831174254 | 67 | 91 | 5.0 | 6.0 | 0.00 | 0.00 | 0.00 | 40 | 1020.1 |
| 20260831173753 | 66 | 86 | 8.0 | 8.0 | 0.00 | 0.00 | 0.00 | 39 | 1019.9 |
| 20260831173247 | 66 | 58 | 4.0 | 5.0 | 0.00 | 0.00 | 0.00 | 42 | 1020.2 |
| 20260831172742 | 66 | 45 | 3.0 | 3.0 | 0.00 | 0.00 | 0.00 | 43 | 1020.3 |
| 20260831172238 | 65 | 93 | 4.0 | 5.0 | 0.00 | 0.00 | 0.00 | 42 | 1020.3 |
| 20260831171732 | 65 | 65 | 3.0 | 6.0 | 0.00 | 0.00 | 0.00 | 45 | 1020.2 |
| 20260831171230 | 65 | 56 | 3.0 | 3.0 | 0.00 | 0.00 | 0.00 | 45 | 1020.1 |
| 20260831170726 | 65 | 80 | 1.0 | 2.0 | 0.00 | 0.00 | 0.00 | 45 | 1020.2 |
| 20260831170222 | 64 | 62 | 4.0 | 6.0 | 0.00 | 0.00 | 0.00 | 49 | 1020.4 |
| 20260831165718 | 64 | 80 | 5.0 | 7.0 | 0.00 | 0.00 | 0.00 | 50 | 1020.4 |
| 20260831165214 | 64 | 98 | 3.0 | 3.0 | 0.00 | 0.00 | 0.00 | 51 | 1020.4 |
| 20260831164710 | 63 | 130 | 5.0 | 6.0 | 0.00 | 0.00 | 0.00 | 52 | 1020.5 |
| 20260831164206 | 62 | 86 | 4.0 | 5.0 | 0.00 | 0.00 | 0.00 | 54 | 1020.4 |
| 20260831163701 | 63 | 56 | 1.0 | 1.0 | 0.00 | 0.00 | 0.00 | 54 | 1020.3 |
| 20260831163157 | 62 | 85 | 4.0 | 6.0 | 0.00 | 0.00 | 0.00 | 54 | 1020.3 |
| 20260831162655 | 62 | 83 | 2.0 | 3.0 | 0.00 | 0.00 | 0.00 | 56 | 1020.5 |
| 20260831162154 | 61 | 67 | 3.0 | 3.0 | 0.00 | 0.00 | 0.00 | 57 | 1020.4 |
| 20260831161649 | 62 | 94 | 0.0 | 0.0 | 0.00 | 0.00 | 0.00 | 54 | 1020.4 |